UAE245 LGMK-LGAV

Flight info

Callsign UAE245
Flight time 0h 29m
Altitude 12000
Route VARI1D VARIX VARI1Q
Aircraft A333/H-VGD/A

Departure

Time 2026-04-24 16:27
Airport Mykonos Island National Airport (LGMK)

Arrival

Time 2026-04-24 16:57
Airport Athens Eleftherios Venizelos International Airport (LGAV)
Time Latitude Longitude Altitude Speed Heading
2026-04-24 16:24 37.43506 25.34658 414 ft 0 kts 251°
2026-04-24 16:24 37.43505 25.34656 414 ft 1 kts 242°
2026-04-24 16:25 37.43467 25.34683 415 ft 14 kts 122°
2026-04-24 16:25 37.43389 25.34837 420 ft 27 kts 135°
2026-04-24 16:25 37.43176 25.34969 418 ft 43 kts 158°
2026-04-24 16:26 37.42717 25.35162 400 ft 12 kts 73°
2026-04-24 16:26 37.42758 25.35168 402 ft 0 kts 339°
2026-04-24 16:27 37.42813 25.35136 405 ft 34 kts 336°
2026-04-24 16:27 37.43287 25.34922 421 ft 109 kts 340°
2026-04-24 16:27 37.44226 25.34510 415 ft 172 kts 335°
2026-04-24 16:27 37.45409 25.33916 1012 ft 190 kts 335°
2026-04-24 16:28 37.46613 25.33207 1886 ft 205 kts 335°
2026-04-24 16:28 37.47945 25.32394 2721 ft 229 kts 337°
2026-04-24 16:28 37.51231 25.30705 4530 ft 276 kts 329°
2026-04-24 16:29 37.52421 25.28908 5956 ft 283 kts 289°
2026-04-24 16:29 37.52511 25.26467 7309 ft 287 kts 255°
2026-04-24 16:29 37.50066 25.22883 9941 ft 274 kts 214°
2026-04-24 16:30 37.47026 25.20187 12131 ft 267 kts 218°
2026-04-24 16:30 37.45517 25.18562 12125 ft 308 kts 225°
2026-04-24 16:30 37.44263 25.16193 12183 ft 346 kts 246°
2026-04-24 16:31 37.43440 25.13196 12202 ft 375 kts 249°
2026-04-24 16:31 37.42274 25.10296 12131 ft 365 kts 238°
2026-04-24 16:31 37.40550 25.08004 11784 ft 366 kts 214°
2026-04-24 16:31 37.38291 25.06576 11351 ft 357 kts 198°
2026-04-24 16:32 37.36029 25.05349 11569 ft 360 kts 206°
2026-04-24 16:32 37.33963 25.03596 11794 ft 361 kts 220°
2026-04-24 16:32 37.32339 25.01198 12057 ft 364 kts 236°
2026-04-24 16:32 37.31378 24.98245 12211 ft 368 kts 256°
2026-04-24 16:33 37.31370 24.95043 11793 ft 368 kts 281°
2026-04-24 16:33 37.32396 24.92155 11532 ft 362 kts 306°
2026-04-24 16:33 37.34269 24.90107 11503 ft 358 kts 330°
2026-04-24 16:33 37.36509 24.88718 11564 ft 359 kts 334°
2026-04-24 16:34 37.38670 24.87186 11695 ft 361 kts 321°
2026-04-24 16:34 37.40394 24.84886 11861 ft 363 kts 305°
2026-04-24 16:34 37.41691 24.82176 11980 ft 366 kts 296°
2026-04-24 16:34 37.42653 24.79208 12030 ft 368 kts 289°
2026-04-24 16:35 37.43561 24.76217 11925 ft 360 kts 291°
2026-04-24 16:35 37.44453 24.73345 10875 ft 357 kts 291°
2026-04-24 16:35 37.45251 24.70417 9701 ft 355 kts 288°
2026-04-24 16:35 37.46037 24.67490 8385 ft 357 kts 289°
2026-04-24 16:36 37.46810 24.64599 7753 ft 334 kts 290°
2026-04-24 16:36 37.47549 24.61894 6743 ft 334 kts 290°
2026-04-24 16:36 37.48260 24.59126 5535 ft 333 kts 290°
2026-04-24 16:36 37.48959 24.56363 4739 ft 339 kts 289°
2026-04-24 16:37 37.49567 24.53507 4620 ft 332 kts 285°
2026-04-24 16:37 37.50097 24.50661 5253 ft 329 kts 287°
2026-04-24 16:37 37.50600 24.47942 6075 ft 323 kts 285°
2026-04-24 16:37 37.51137 24.45077 6119 ft 344 kts 286°
2026-04-24 16:38 37.51700 24.42186 6091 ft 334 kts 284°
2026-04-24 16:38 37.52337 24.39371 6222 ft 333 kts 291°
2026-04-24 16:38 37.53333 24.36714 5866 ft 338 kts 300°
2026-04-24 16:38 37.54384 24.34109 5507 ft 332 kts 294°
2026-04-24 16:39 37.55318 24.31484 5347 ft 329 kts 300°
2026-04-24 16:39 37.56812 24.29456 5572 ft 319 kts 329°
2026-04-24 16:39 37.58768 24.28104 5806 ft 324 kts 321°
2026-04-24 16:39 37.60092 24.25826 5950 ft 335 kts 293°
2026-04-24 16:40 37.60656 24.22962 6041 ft 339 kts 284°
2026-04-24 16:40 37.61203 24.20077 6137 ft 339 kts 284°
2026-04-24 16:40 37.61742 24.17171 6106 ft 340 kts 285°
2026-04-24 16:40 37.62209 24.14306 5949 ft 329 kts 281°
2026-04-24 16:41 37.62639 24.11499 5460 ft 330 kts 284°
2026-04-24 16:41 37.63093 24.08646 4682 ft 334 kts 284°
2026-04-24 16:41 37.63553 24.05808 3843 ft 335 kts 283°
2026-04-24 16:41 37.64044 24.02963 3282 ft 323 kts 284°
2026-04-24 16:42 37.64541 24.00296 3380 ft 311 kts 284°
2026-04-24 16:42 37.64992 23.97744 3538 ft 286 kts 283°
2026-04-24 16:42 37.64804 23.95340 3644 ft 266 kts 254°
2026-04-24 16:42 37.64356 23.93151 3769 ft 249 kts 257°
2026-04-24 16:43 37.63913 23.91132 3785 ft 233 kts 255°
2026-04-24 16:43 37.63598 23.89142 3617 ft 227 kts 271°
2026-04-24 16:43 37.63861 23.87247 3428 ft 214 kts 298°
2026-04-24 16:43 37.64616 23.85674 3407 ft 211 kts 305°
2026-04-24 16:44 37.65434 23.84091 3038 ft 216 kts 305°
2026-04-24 16:44 37.66331 23.82378 3089 ft 244 kts 309°
2026-04-24 16:44 37.67241 23.80671 3195 ft 229 kts 307°
2026-04-24 16:44 37.68360 23.79332 2973 ft 214 kts 335°
2026-04-24 16:45 37.69768 23.78983 2866 ft 209 kts 354°
2026-04-24 16:45 37.71359 23.78855 2882 ft 238 kts 357°
2026-04-24 16:45 37.73036 23.78703 2879 ft 247 kts 356°
2026-04-24 16:45 37.74775 23.78514 2909 ft 253 kts 353°
2026-04-24 16:46 37.76538 23.78244 3047 ft 252 kts 352°
2026-04-24 16:46 37.78208 23.77956 3058 ft 234 kts 352°
2026-04-24 16:46 37.79787 23.77713 2897 ft 223 kts 352°
2026-04-24 16:46 37.81287 23.77463 2777 ft 211 kts 352°
2026-04-24 16:47 37.82727 23.77250 2610 ft 209 kts 348°
2026-04-24 16:47 37.83947 23.76354 2764 ft 211 kts 308°
2026-04-24 16:47 37.84448 23.74469 3103 ft 256 kts 270°
2026-04-24 16:47 37.83983 23.72130 3612 ft 296 kts 252°
2026-04-24 16:48 37.83525 23.69430 3900 ft 336 kts 266°
2026-04-24 16:48 37.83329 23.66297 4430 ft 366 kts 269°
2026-04-24 16:48 37.83121 23.63127 4666 ft 365 kts 265°
2026-04-24 16:48 37.82708 23.59999 3928 ft 359 kts 258°
2026-04-24 16:49 37.81908 23.57120 3927 ft 337 kts 245°
2026-04-24 16:49 37.80844 23.54529 3963 ft 332 kts 242°
2026-04-24 16:49 37.79729 23.51990 3988 ft 326 kts 242°
2026-04-24 16:49 37.78330 23.49832 4045 ft 321 kts 214°
2026-04-24 16:50 37.76967 23.49031 4063 ft 323 kts 193°
2026-04-24 16:50 37.74005 23.49281 4128 ft 328 kts 155°
2026-04-24 16:50 37.72186 23.50982 4232 ft 326 kts 124°
2026-04-24 16:50 37.71338 23.53552 4208 ft 325 kts 96°
2026-04-24 16:51 37.71452 23.56483 3585 ft 336 kts 79°
2026-04-24 16:51 37.72049 23.59257 3156 ft 318 kts 71°
2026-04-24 16:51 37.72618 23.61889 2748 ft 303 kts 72°
2026-04-24 16:51 37.73124 23.64373 2602 ft 285 kts 74°
2026-04-24 16:52 37.73644 23.66888 2591 ft 305 kts 73°
2026-04-24 16:52 37.74178 23.69515 2620 ft 312 kts 72°
2026-04-24 16:52 37.74836 23.72129 2848 ft 316 kts 64°
2026-04-24 16:52 37.75706 23.74717 2994 ft 314 kts 63°
2026-04-24 16:53 37.76632 23.77066 2962 ft 287 kts 53°
2026-04-24 16:53 37.77914 23.78771 3031 ft 257 kts 36°
2026-04-24 16:53 37.79335 23.80111 2905 ft 250 kts 31°
2026-04-24 16:53 37.80774 23.81323 2679 ft 249 kts 31°
2026-04-24 16:54 37.82217 23.82517 2540 ft 245 kts 32°
2026-04-24 16:54 37.83612 23.83805 2173 ft 250 kts 34°
2026-04-24 16:54 37.85000 23.85128 1903 ft 251 kts 37°
2026-04-24 16:54 37.86366 23.86447 1357 ft 242 kts 38°
2026-04-24 16:55 37.87633 23.87656 935 ft 213 kts 33°
2026-04-24 16:55 37.88842 23.88584 890 ft 201 kts 38°
2026-04-24 16:55 37.89966 23.89747 668 ft 215 kts 42°
2026-04-24 16:55 37.91096 23.90945 475 ft 201 kts 32°
2026-04-24 16:56 37.92162 23.91915 340 ft 184 kts 36°
2026-04-24 16:56 37.93115 23.92805 273 ft 153 kts 36°
2026-04-24 16:56 37.93862 23.93502 270 ft 107 kts 38°
2026-04-24 16:56 37.94307 23.93939 275 ft 57 kts 37°
2026-04-24 16:57 37.94632 23.94248 279 ft 57 kts 40°
2026-04-24 16:57 37.94853 23.94502 285 ft 22 kts 61°
2026-04-24 16:57 37.94908 23.94655 290 ft 16 kts 79°
2026-04-24 16:57 37.94862 23.94729 294 ft 8 kts 182°
2026-04-24 16:58 37.94802 23.94688 293 ft 13 kts 213°
2026-04-24 16:58 37.94709 23.94631 291 ft 15 kts 178°
2026-04-24 16:58 37.94638 23.94706 293 ft 12 kts 122°
2026-04-24 16:58 37.94595 23.94781 295 ft 8 kts 131°
2026-04-24 16:59 37.94563 23.94833 296 ft 6 kts 127°
2026-04-24 16:59 37.94497 23.94938 297 ft 23 kts 127°
2026-04-24 16:59 37.94252 23.95357 294 ft 31 kts 128°
2026-04-24 17:00 37.94125 23.95546 287 ft 14 kts 155°
2026-04-24 17:00 37.93937 23.95411 287 ft 23 kts 218°
2026-04-24 17:00 37.93850 23.95220 290 ft 28 kts 234°
2026-04-24 17:01 37.93726 23.95092 293 ft 0 kts 214°
2026-04-24 17:02 37.93778 23.95042 296 ft 0 kts 331°
2026-04-24 17:02 37.93788 23.95035 297 ft 3 kts 322°
2026-04-24 17:02 37.93794 23.95025 297 ft 0 kts 304°